Regional Weather Roundup
Issued by NWS

Home | Current Version | Previous Version | Text Only | Print | Product List | Glossary On
Versions: 1 2 3 4 5 6 7 8 9 10 11 12 13 14 15 16 17 18 19 20 21 22 23 24 25 26 27 28 29 30 31 32 33 34 35 36 37 38 39 40 41 42 43 44 45 46 47 48 49 50
000
ASUS43 KOAX 231610
RWRNE

WEATHER ROUNDUP FOR NEBRASKA
NATIONAL WEATHER SERVICE OMAHA NE
1100 AM CDT MON OCT 23 2017

NOTES: SATELLITE DATA IS BEING USED TO AUGMENT CLOUD COVER ABOVE
       12000 FEET.
       "FAIR" INDICATES FEW OR NO CLOUDS BELOW 12,000 FEET WITH NO
       SIGNIFICANT WEATHER AND/OR OBSTRUCTIONS TO VISIBILITY.


NEZ001>004-019>022-054>056-231700-
NEBRASKA PANHANDLE

CITY           SKY/WX    TMP DP  RH WIND       PRES   REMARKS
SCOTTSBLUFF    SUNNY     52  21  29 NW20G28   30.39R
ALLIANCE       SUNNY     50  22  33 MISG      30.34R
CHADRON        SUNNY     52  22  30 NW20G28   30.35R
GORDON         FAIR      49  30  48 NW13G20   30.30R
KIMBALL        CLOUDY    46  29  51 NW15G22   30.39S
SIDNEY         PTSUNNY   51  21  30 N29G39    30.36R
$$

NEZ057>060-069>072-079>082-231700-
SOUTHWEST NEBRASKA

CITY           SKY/WX    TMP DP  RH WIND       PRES   REMARKS
NORTH PLATTE   SUNNY     56  31  38 NW22G35   30.28R
IMPERIAL       CLOUDY    53  26  35 NW20G26   30.31R
LEXINGTON      SUNNY     58  28  30 NW29G40   30.22S
MCCOOK         PTSUNNY   56  33  42 NW18      30.27R
OGALLALA       CLOUDY    56  24  29 N20G26    30.29F
$$

NEZ005>010-023>029-035>040-094-231700-
NORTH CENTRAL NEBRASKA

CITY           SKY/WX    TMP DP  RH WIND       PRES   REMARKS
VALENTINE      SUNNY     56  27  32 NW32G44   30.21R
AINSWORTH      SUNNY     54  30  40 NW28G37   30.19S
BROKEN BOW     SUNNY     56  29  35 N25G46    30.19R
O`NEILL        SUNNY     55  34  45 NW33G43   30.13R
ORD            SUNNY     57  31  37 NW26G44   30.15R
THEDFORD       SUNNY     55  28  34 NW25G38   30.25R
$$

NEZ041-046>049-061>064-073>077-083>087-231700-
SOUTH CENTRAL NEBRASKA

CITY           SKY/WX    TMP DP  RH WIND       PRES   REMARKS
GRAND ISLAND   MOSUNNY   59  30  33 NW32G39   30.13S
AURORA         MOSUNNY   58  29  32 NW20G35   30.12S
HASTINGS       CLOUDY    57  28  33 NW26G44   30.16R
HEBRON         CLOUDY    63  30  29 N23G38    30.10R
HOLDREGE       MOSUNNY   57  29  35 N25G36    30.21R
KEARNEY        CLOUDY    57  28  33 NW23G33   30.19R
YORK           CLOUDY    59  32  36 NW33G40   30.08F
$$

NEZ011>018-030>034-042>045-231700-
NORTHEAST NEBRASKA

CITY           SKY/WX    TMP DP  RH WIND       PRES   REMARKS
NORFOLK        SUNNY     57  35  43 NW30G36   30.04R
ALBION         MOSUNNY   58  34  39 NW26G38   30.10S
BLAIR          PTSUNNY   59  36  43 NW18G30   30.00R
COLUMBUS       MOSUNNY   57  35  43 NW28G36   30.07R
FREMONT        MOSUNNY   60  35  39 NW23G35   30.03R
TEKAMAH        MOSUNNY   59  37  44 NW23G33   30.00R
WAYNE          SUNNY     57  34  41 NW23G35   30.03S
$$

NEZ050>053-065>068-078-088>093-231700-
SOUTHEAST NEBRASKA

CITY           SKY/WX    TMP DP  RH WIND       PRES   REMARKS
LINCOLN        SUNNY     64  33  31 NW25G40   30.06R
OMAHA EPPLEY   PTSUNNY   64  40  41 NW26G33   29.97R
BEATRICE       CLOUDY    61  39  45 NW25G32   30.05R
FALLS CITY     CLOUDY    63  39  41 N18G31    29.97R
NEBRASKA CITY  LGT RAIN  60  42  50 N18G31    29.99R
PLATTSMOUTH    PTSUNNY   62  40  43 NW18G31   29.99R HAZE
$$

NEZ044-045-051>053-067-231700-
OMAHA AREA

CITY           SKY/WX    TMP DP  RH WIND       PRES   REMARKS
OMAHA EPPLEY   PTSUNNY   64  40  41 NW26G33   29.97R
BLAIR          PTSUNNY   59  36  43 NW18G30   30.00R
FREMONT        MOSUNNY   60  35  39 NW23G35   30.03R
MILLARD        MOSUNNY   62  38  40 NW21G30   30.00R
OFFUTT AFB     PTSUNNY   62  38  42 NW23G30   29.98R
PLATTSMOUTH    PTSUNNY   62  40  43 NW18G31   29.99R HAZE
WAHOO          FAIR      61  32  33 NW20G36   30.03R
$$



USA.gov is the U.S. government's official web portal to all federal, state and local government web resources and services.